DW5479 Weather Reports


time (UTC)temp
F
wind
direction
speed
knots
gust
knots
rain 1hr
in
rain 24hr
in
rain mn
in
humidity
%
barometer
mb
20260901224554 98 150 0.9 2.6 0.00 0.00 0.00 37 1010.0
20260901223008 98 136 0.9 5.2 0.00 0.00 0.00 37 1010.0
20260901221537 99 154 1.7 6.1 0.00 0.00 0.00 36 1010.0
20260901220054 100 152 1.7 6.1 0.00 0.00 0.00 35 1010.0
20260901214528 100 155 1.7 4.3 0.00 0.00 0.00 35 1010.0
20260901213051 100 174 2.6 7.8 0.00 0.00 0.00 35 1010.3
20260901211504 100 159 1.7 7.0 0.00 0.00 0.00 35 1010.4
20260901210026 99 148 2.6 6.1 0.00 0.00 0.00 35 1010.7
20260901204551 99 155 1.7 7.0 0.00 0.00 0.00 35 1011.0
20260901203016 99 149 2.6 7.0 0.00 0.00 0.00 35 1011.2
20260901201534 99 160 0.9 6.1 0.00 0.00 0.00 36 1011.6
20260901200050 100 167 1.7 7.0 0.00 0.00 0.00 35 1011.7
20260901194502 99 149 3.5 6.1 0.00 0.00 0.00 36 1012.0
20260901193030 99 145 4.3 9.6 0.00 0.00 0.00 36 1012.2
20260901191601 98 162 1.7 7.0 0.00 0.00 0.00 37 1012.2
20260901190014 97 155 3.5 7.0 0.00 0.00 0.00 37 1012.5
20260901184528 96 141 1.7 5.2 0.00 0.00 0.00 39 1012.8
20260901183046 96 167 1.7 7.8 0.00 0.00 0.00 40 1013.1
20260901181602 96 156 1.7 6.1 0.00 0.00 0.00 40 1013.3
20260901180024 96 181 2.6 7.8 0.00 0.00 0.00 40 1013.7
20260901174544 95 170 2.6 6.1 0.00 0.00 0.00 44 1013.9
20260901173053 94 123 4.3 7.8 0.00 0.00 0.00 44 1014.1
20260901171508 94 134 3.5 7.8 0.00 0.00 0.00 43 1014.3
20260901170023 92 148 0.9 4.3 0.00 0.00 0.00 48 1014.4
20260901164612 92 123 3.5 7.0 0.00 0.00 0.00 48 1014.5
20260901163042 92 146 1.7 4.3 0.00 0.00 0.00 48 1014.6
20260901161540 91 155 0.0 4.3 0.00 0.00 0.00 53 1014.7
20260901160100 90 150 1.7 5.2 0.00 0.00 0.00 52 1014.7
20260901154531 89 123 2.6 4.3 0.00 0.00 0.00 56 1014.8
20260901153038 89 158 3.5 6.1 0.00 0.00 0.00 59 1014.8
20260901151550 87 161 0.0 4.3 0.00 0.00 0.00 65 1014.8
20260901150006 86 143 2.6 5.2 0.00 0.00 0.00 68 1014.8
20260901144524 85 145 1.7 5.2 0.00 0.00 0.00 71 1014.8
20260901143048 85 202 0.9 5.2 0.00 0.00 0.00 74 1014.8
20260901141518 84 147 0.0 2.6 0.00 0.00 0.00 80 1014.7
20260901140032 83 151 0.0 1.7 0.00 0.00 0.00 82 1014.7
20260901134600 80 122 0.0 0.9 0.00 0.00 0.00 85 1014.8
20260901133005 78 131 0.9 2.6 0.00 0.00 0.00 87 1014.7
20260901131523 77 164 0.0 0.9 0.00 0.00 0.00 89 1014.6
20260901130040 75 136 0.0 0.9 0.00 0.00 0.00 89 1014.4
20260901124559 73 134 0.0 0.0 0.00 0.00 0.00 89 1014.1
20260901123011 73 137 0.0 0.0 0.00 0.00 0.00 89 1014.1
20260901121537 73 133 0.0 0.0 0.00 0.00 0.00 88 1013.9
20260901120018 74 147 0.0 0.0 0.00 0.00 0.00 88 1014.0
20260901114549 74 144 0.0 0.0 0.00 0.00 0.00 88 1014.1
20260901113007 75 158 0.0 0.0 0.00 0.00 0.00 88 1014.1
20260901111526 75 162 0.0 0.0 0.00 0.00 0.00 88 1014.2
20260901110045 75 185 0.0 0.0 0.00 0.00 0.00 88 1014.2
20260901104559 76 139 0.0 0.9 0.00 0.00 0.00 88 1014.1
20260901103016 75 165 0.0 0.0 0.00 0.00 0.00 88 1014.2
20260901101529 75 133 0.0 0.9 0.00 0.00 0.00 88 1014.0
20260901100052 74 127 0.0 0.0 0.00 0.00 0.00 88 1013.9
20260901094605 75 137 0.0 0.0 0.00 0.00 0.00 88 1013.8
20260901093017 74 166 0.0 0.0 0.00 0.00 0.00 88 1013.8
20260901091547 75 133 0.0 0.0 0.00 0.00 0.00 87 1013.9
20260901090005 75 171 0.0 0.0 0.00 0.00 0.00 87 1014.0
20260901084522 75 149 0.0 0.0 0.00 0.00 0.00 86 1014.0
20260901083039 76 138 0.0 0.0 0.00 0.00 0.00 86 1014.0
20260901081554 77 136 0.0 0.0 0.00 0.00 0.00 85 1014.0
20260901080011 77 134 0.0 0.9 0.00 0.00 0.00 85 1014.1
20260901074520 78 144 0.0 0.9 0.00 0.00 0.00 85 1013.9
20260901073038 78 108 0.0 1.7 0.00 0.00 0.00 84 1013.9
20260901071603 78 148 0.0 2.6 0.00 0.00 0.00 84 1013.9
20260901070010 79 155 0.0 0.9 0.00 0.00 0.00 83 1014.0
20260901064545 79 138 0.9 1.7 0.00 0.00 0.00 82 1014.0
20260901063005 79 94 0.0 1.7 0.00 0.00 0.00 81 1014.0
20260901061524 80 179 1.7 3.5 0.00 0.00 0.00 81 1013.9
20260901060043 80 179 1.7 6.1 0.00 0.00 0.00 80 1013.7
20260901054600 81 138 2.6 9.6 0.00 0.00 0.00 79 1013.5
20260901053015 81 127 5.2 9.6 0.00 0.00 0.00 77 1013.3
20260901051534 81 160 4.3 7.8 0.00 0.00 0.00 75 1013.4
20260901050050 82 167 4.3 10.4 0.00 0.00 0.00 73 1013.2
20260901044507 82 154 5.2 8.7 0.00 0.00 0.00 72 1013.1
20260901043023 83 141 3.5 7.8 0.00 0.00 0.00 71 1013.0
20260901041557 83 149 7.0 13.0 0.00 0.00 0.00 70 1013.1
20260901040027 84 141 6.1 10.4 0.00 0.00 0.00 68 1013.0
20260901034548 84 150 5.2 10.4 0.00 0.00 0.00 67 1013.0
20260901033030 85 146 6.1 10.4 0.00 0.00 0.00 65 1012.9
20260901031544 86 149 7.8 13.0 0.00 0.00 0.00 63 1012.8
20260901030052 86 141 5.2 10.4 0.00 0.00 0.00 61 1012.6
20260901024505 87 160 4.3 10.4 0.00 0.00 0.00 60 1012.2
20260901023040 88 158 6.1 10.4 0.00 0.00 0.00 58 1012.1
20260901021600 88 126 7.0 13.9 0.00 0.00 0.00 57 1011.8
20260901020016 89 152 4.3 12.2 0.00 0.00 0.00 54 1011.6
20260901014548 90 165 6.1 12.2 0.00 0.00 0.00 53 1011.4
20260901013028 91 146 5.2 10.4 0.00 0.00 0.00 52 1011.1
20260901011538 92 133 4.3 9.6 0.00 0.00 0.00 50 1011.0
20260901010055 92 146 3.5 9.6 0.00 0.00 0.00 47 1010.7
20260901004504 94 165 2.6 7.8 0.00 0.00 0.00 44 1010.6
20260901003027 95 151 2.6 7.0 0.00 0.00 0.00 43 1010.5
20260901001542 96 139 4.3 7.8 0.00 0.00 0.00 40 1010.3
20260901000057 96 179 2.6 7.8 0.00 0.00 0.00 40 1010.3
20260831234510 96 152 5.2 9.6 0.00 0.00 0.00 40 1010.2
20260831233033 98 143 3.5 7.8 0.00 0.00 0.00 38 1010.2
20260831231615 98 158 5.2 12.2 0.00 0.00 0.00 38 1010.1
20260831230028 99 132 3.5 7.8 0.00 0.00 0.00 36 1010.1